,,,PA_Meas_PMT16A,,PR_Meas_QMR101_102,,RH_Meas_QMH101,,SR_Meas_QMS101,,TA_Meas_QMH101,,GenWind,,GenWind,
date,time,status,PA,status,PR,status,RH,status,SR,status,TA,status,DirAvg,status,SpdAvg,
2012-03-31, 00:00:04,VALID,1002.21,VALID,0,VALID,92.7228,VALID,0,VALID,24.2476,VALID,53,VALID,0.326172,
2012-03-31, 00:01:04,VALID,1002.23,VALID,0,VALID,92.7151,VALID,0,VALID,24.2281,VALID,53,VALID,0.385156,
2012-03-31, 00:02:04,VALID,1002.2,VALID,0,VALID,92.7838,VALID,0,VALID,24.1872,VALID,53,VALID,0.302344,
2012-03-31, 00:03:04,VALID,1002.23,VALID,0,VALID,92.8906,VALID,0,VALID,24.2281,VALID,53,VALID,0,
2012-03-31, 00:04:04,VALID,1002.24,VALID,0,VALID,92.9364,VALID,0,VALID,24.2086,VALID,53,VALID,0,
2012-03-31, 00:05:04,VALID,1002.22,VALID,0,VALID,92.9059,VALID,0,VALID,24.2086,VALID,53,VALID,0,
2012-03-31, 00:06:04,VALID,1002.22,VALID,0,VALID,92.9211,VALID,0,VALID,24.1891,VALID,53,VALID,0,
2012-03-31, 00:07:04,VALID,1002.19,VALID,0,VALID,92.9059,VALID,0,VALID,24.1891,VALID,53,VALID,0,
2012-03-31, 00:08:04,VALID,1002.16,VALID,0,VALID,92.9517,VALID,0,VALID,24.1891,VALID,53,VALID,0,
2012-03-31, 00:09:04,VALID,1002.13,VALID,0,VALID,92.883,VALID,0,VALID,24.1696,VALID,53,VALID,0,
2012-03-31, 00:10:04,VALID,1002.07,VALID,0,VALID,92.7685,VALID,0,VALID,24.1305,VALID,53,VALID,0,
2012-03-31, 00:11:04,VALID,1002.04,VALID,0,VALID,92.7075,VALID,0,VALID,24.0915,VALID,53,VALID,0,
2012-03-31, 00:12:04,VALID,1002.04,VALID,0,VALID,92.8677,VALID,0,VALID,24.0915,VALID,53,VALID,0,
2012-03-31, 00:13:04,VALID,1002.03,VALID,0,VALID,93.089,VALID,0,VALID,24.0915,VALID,53,VALID,0,
2012-03-31, 00:14:05,VALID,1002.02,VALID,0,VALID,93.2034,VALID,0,VALID,24.072,VALID,53,VALID,0.479688,
2012-03-31, 00:15:05,VALID,1002.01,VALID,0,VALID,93.2797,VALID,0,VALID,24.0915,VALID,53,VALID,0.511719,
2012-03-31, 00:16:05,VALID,1001.98,VALID,0,VALID,93.3026,VALID,0,VALID,24.0915,VALID,53,VALID,0.527344,
2012-03-31, 00:17:05,VALID,1002.01,VALID,0,VALID,93.3789,VALID,0,VALID,24.111,VALID,53,VALID,0.414063,
2012-03-31, 00:18:05,VALID,1002,VALID,0,VALID,93.356,VALID,0,VALID,24.111,VALID,53,VALID,0.150391,
2012-03-31, 00:19:05,VALID,1001.99,VALID,0,VALID,93.3255,VALID,0,VALID,24.1305,VALID,53,VALID,0,
2012-03-31, 00:20:05,VALID,1001.92,VALID,0,VALID,93.2263,VALID,0,VALID,24.111,VALID,53,VALID,0,
2012-03-31, 00:21:05,VALID,1001.91,VALID,0,VALID,93.0737,VALID,0,VALID,24.0915,VALID,53,VALID,0,
2012-03-31, 00:22:05,VALID,1001.9,VALID,0,VALID,92.9822,VALID,0,VALID,24.0525,VALID,53,VALID,0,
2012-03-31, 00:23:05,VALID,1001.85,VALID,0,VALID,93.028,VALID,0,VALID,24.072,VALID,53,VALID,0,
2012-03-31, 00:24:05,VALID,1001.84,VALID,0,VALID,93.0966,VALID,0,VALID,24.0506,VALID,53,VALID,0,
2012-03-31, 00:25:05,VALID,1001.81,VALID,0,VALID,93.1424,VALID,0,VALID,24.0525,VALID,53,VALID,0,
2012-03-31, 00:26:05,VALID,1001.8,VALID,0,VALID,93.1729,VALID,0,VALID,24.072,VALID,53,VALID,0,
2012-03-31, 00:27:05,VALID,1001.76,VALID,0,VALID,93.2034,VALID,0,VALID,24.0525,VALID,53,VALID,0,
2012-03-31, 00:28:05,VALID,1001.76,VALID,0,VALID,93.1958,VALID,0,VALID,24.0525,VALID,53,VALID,0,
2012-03-31, 00:29:05,VALID,1001.73,VALID,0,VALID,93.2492,VALID,0,VALID,24.0525,VALID,53,VALID,0,
2012-03-31, 00:30:05,VALID,1001.71,VALID,0,VALID,93.2492,VALID,0,VALID,24.0525,VALID,53,VALID,0,
2012-03-31, 00:31:05,VALID,1001.71,VALID,0,VALID,93.2797,VALID,0,VALID,24.0525,VALID,53,VALID,0,
2012-03-31, 00:32:05,VALID,1001.67,VALID,0,VALID,93.2797,VALID,0,VALID,24.0329,VALID,53,VALID,0,
2012-03-31, 00:33:05,VALID,1001.66,VALID,0,VALID,93.3179,VALID,0,VALID,24.0329,VALID,53,VALID,0,
2012-03-31, 00:34:05,VALID,1001.66,VALID,0,VALID,93.3331,VALID,0,VALID,24.0116,VALID,53,VALID,0.294141,
2012-03-31, 00:35:05,VALID,1001.61,VALID,0,VALID,93.3866,VALID,0,VALID,24.0329,VALID,53,VALID,0.3375,
2012-03-31, 00:36:05,VALID,1001.59,VALID,0,VALID,93.4247,VALID,0,VALID,24.0525,VALID,53,VALID,0.391406,
2012-03-31, 00:37:05,VALID,1001.56,VALID,0,VALID,93.44,VALID,0,VALID,24.0525,VALID,53,VALID,0.340234,
2012-03-31, 00:38:05,VALID,1001.53,VALID,0,VALID,93.4094,VALID,0,VALID,24.0329,VALID,53,VALID,0.226953,
2012-03-31, 00:39:05,VALID,1001.49,VALID,0,VALID,93.3866,VALID,0,VALID,23.9921,VALID,53,VALID,0.253906,
2012-03-31, 00:40:05,VALID,1001.47,VALID,0,VALID,93.3484,VALID,0,VALID,23.9939,VALID,53,VALID,0.258594,
2012-03-31, 00:41:05,VALID,1001.47,VALID,0,VALID,93.3484,VALID,0,VALID,23.9939,VALID,53,VALID,0.195703,
2012-03-31, 00:42:05,VALID,1001.43,VALID,0,VALID,93.3331,VALID,0,VALID,23.9549,VALID,53,VALID,0.198047,
2012-03-31, 00:43:05,VALID,1001.43,VALID,0,VALID,93.2874,VALID,0,VALID,23.9159,VALID,53,VALID,0.459375,
2012-03-31, 00:44:05,VALID,1001.4,VALID,0,VALID,93.356,VALID,0,VALID,23.9159,VALID,53,VALID,0.731641,
2012-03-31, 00:45:05,VALID,1001.41,VALID,0,VALID,93.4552,VALID,0,VALID,23.9159,VALID,53,VALID,0.864062,
2012-03-31, 00:46:05,VALID,1001.38,VALID,0,VALID,93.562,VALID,0,VALID,23.9159,VALID,53,VALID,0.8875,
2012-03-31, 00:47:05,VALID,1001.34,VALID,0,VALID,93.6383,VALID,0,VALID,23.9159,VALID,53,VALID,0.874219,
2012-03-31, 00:48:05,VALID,1001.33,VALID,0,VALID,93.6765,VALID,0,VALID,23.9159,VALID,53,VALID,0.877734,
2012-03-31, 00:49:05,VALID,1001.31,VALID,0,VALID,93.6002,VALID,0,VALID,23.9159,VALID,53,VALID,0.887109,
2012-03-31, 00:50:05,VALID,1001.29,VALID,0,VALID,93.5773,VALID,0,VALID,23.8945,VALID,53,VALID,0.832031,
2012-03-31, 00:51:05,VALID,1001.28,VALID,0,VALID,93.562,VALID,0,VALID,23.8963,VALID,53,VALID,0.823438,
2012-03-31, 00:52:05,VALID,1001.27,VALID,0,VALID,93.5544,VALID,0,VALID,23.875,VALID,53,VALID,0.663672,
2012-03-31, 00:53:05,VALID,1001.25,VALID,0,VALID,93.4857,VALID,0,VALID,23.8555,VALID,53,VALID,0.614453,
2012-03-31, 00:54:05,VALID,1001.24,VALID,0,VALID,93.3942,VALID,0,VALID,23.8378,VALID,53,VALID,0.700781,
2012-03-31, 00:55:05,VALID,1001.2,VALID,0,VALID,93.356,VALID,0,VALID,23.8183,VALID,53,VALID,0.901953,
2012-03-31, 00:56:05,VALID,1001.18,VALID,0,VALID,93.4628,VALID,0,VALID,23.7988,VALID,53,VALID,0.851563,
2012-03-31, 00:57:05,VALID,1001.15,VALID,0,VALID,93.5468,VALID,0,VALID,23.7775,VALID,53,VALID,0.773047,
2012-03-31, 00:58:05,VALID,1001.14,VALID,0,VALID,93.6078,VALID,0,VALID,23.7579,VALID,53,VALID,0.733594,
2012-03-31, 00:59:05,VALID,1001.13,VALID,0,VALID,93.5239,VALID,0,VALID,23.7597,VALID,53,VALID,0.707422,
2012-03-31, 01:00:05,VALID,1001.11,VALID,0,VALID,93.4705,VALID,0,VALID,23.7384,VALID,53,VALID,0.616016,
2012-03-31, 01:01:05,VALID,1001.12,VALID,0,VALID,93.3942,VALID,0,VALID,23.7012,VALID,49,VALID,0.682813,
2012-03-31, 01:02:05,VALID,1001.11,VALID,0,VALID,93.4323,VALID,0,VALID,23.6817,VALID,49,VALID,0.683203,
2012-03-31, 01:03:05,VALID,1001.07,VALID,0,VALID,93.6154,VALID,0,VALID,23.7012,VALID,31,VALID,0.808594,
2012-03-31, 01:04:05,VALID,1001.02,VALID,0,VALID,93.7299,VALID,0,VALID,23.6799,VALID,31,VALID,0.960547,
2012-03-31, 01:05:05,VALID,1000.99,VALID,0,VALID,93.8138,VALID,0,VALID,23.6994,VALID,31,VALID,0.986719,
2012-03-31, 01:06:05,VALID,1000.97,VALID,0,VALID,93.8748,VALID,0,VALID,23.7012,VALID,31,VALID,0.794922,
2012-03-31, 01:07:05,VALID,1000.96,VALID,0,VALID,93.8291,VALID,0,VALID,23.6817,VALID,31,VALID,0.806641,
2012-03-31, 01:08:05,VALID,1000.94,VALID,0,VALID,93.7909,VALID,0,VALID,23.6604,VALID,31,VALID,0.766016,
2012-03-31, 01:09:05,VALID,1000.92,VALID,0,VALID,93.7528,VALID,0,VALID,23.6427,VALID,31,VALID,0.772266,
2012-03-31, 01:10:05,VALID,1000.91,VALID,0,VALID,93.8443,VALID,0,VALID,23.6622,VALID,31,VALID,0.722266,
2012-03-31, 01:11:05,VALID,1000.91,VALID,0,VALID,93.8977,VALID,0,VALID,23.6409,VALID,31,VALID,0.767578,
2012-03-31, 01:12:05,VALID,1000.9,VALID,0,VALID,93.9206,VALID,0,VALID,23.6214,VALID,31,VALID,0.836719,
2012-03-31, 01:13:05,VALID,1000.87,VALID,0,VALID,93.974,VALID,0,VALID,23.6622,VALID,31,VALID,0.996484,
2012-03-31, 01:14:05,VALID,1000.88,VALID,0,VALID,93.974,VALID,0,VALID,23.6409,VALID,31,VALID,0.796875,
2012-03-31, 01:15:05,VALID,1000.88,VALID,0,VALID,93.9435,VALID,0,VALID,23.6232,VALID,31,VALID,0.853906,
2012-03-31, 01:16:05,VALID,1000.91,VALID,0,VALID,93.9054,VALID,0,VALID,23.6232,VALID,20,VALID,0.703125,
2012-03-31, 01:17:05,VALID,1000.9,VALID,0,VALID,93.9283,VALID,0,VALID,23.6232,VALID,1,VALID,0.667578,
2012-03-31, 01:18:05,VALID,1000.87,VALID,0,VALID,94.0045,VALID,0,VALID,23.6232,VALID,1,VALID,0.38125,
2012-03-31, 01:19:05,VALID,1000.84,VALID,0,VALID,94.0274,VALID,0,VALID,23.6427,VALID,1,VALID,0.127344,
2012-03-31, 01:20:05,VALID,1000.8,VALID,0,VALID,94.0656,VALID,0,VALID,23.6409,VALID,1,VALID,0,
2012-03-31, 01:21:05,VALID,1000.8,VALID,0,VALID,94.0503,VALID,0,VALID,23.6817,VALID,1,VALID,0,
2012-03-31, 01:22:05,VALID,1000.81,VALID,0,VALID,94.0274,VALID,0,VALID,23.6817,VALID,1,VALID,0,
2012-03-31, 01:23:05,VALID,1000.83,VALID,0,VALID,94.0656,VALID,0,VALID,23.7012,VALID,1,VALID,0.373437,
2012-03-31, 01:24:05,VALID,1000.85,VALID,0,VALID,94.1343,VALID,0,VALID,23.7402,VALID,1,VALID,0.533594,
2012-03-31, 01:25:05,VALID,1000.8,VALID,0,VALID,94.2411,VALID,0,VALID,23.7793,VALID,43,VALID,0.911328,
2012-03-31, 01:26:05,VALID,1000.8,VALID,0,VALID,94.2868,VALID,0,VALID,23.8183,VALID,44,VALID,0.596094,
2012-03-31, 01:27:05,VALID,1000.85,VALID,0,VALID,94.2334,VALID,0,VALID,23.797,VALID,283,VALID,0.928906,
2012-03-31, 01:28:05,VALID,1000.92,VALID,0,VALID,94.18,VALID,0,VALID,23.8378,VALID,276,VALID,1.10469,
2012-03-31, 01:29:05,VALID,1000.95,VALID,0,VALID,94.1343,VALID,0,VALID,23.8573,VALID,271,VALID,1.12461,
2012-03-31, 01:30:05,VALID,1000.98,VALID,0,VALID,94.1266,VALID,0,VALID,23.8768,VALID,260,VALID,1.40469,
2012-03-31, 01:31:05,VALID,1001,VALID,0,VALID,94.1037,VALID,0,VALID,23.8963,VALID,252,VALID,1.13906,
2012-03-31, 01:32:05,VALID,1001.03,VALID,0,VALID,94.0885,VALID,0,VALID,23.9159,VALID,254,VALID,1.50781,
2012-03-31, 01:33:05,VALID,1001.02,VALID,0,VALID,94.0732,VALID,0.104696,VALID,23.9354,VALID,251,VALID,1.33906,
2012-03-31, 01:34:05,VALID,1001,VALID,0,VALID,94.0961,VALID,0,VALID,23.9744,VALID,255,VALID,1.09141,
2012-03-31, 01:35:05,VALID,1000.97,VALID,0,VALID,94.0808,VALID,0,VALID,23.9726,VALID,252,VALID,0.633203,
2012-03-31, 01:36:05,VALID,1000.99,VALID,0,VALID,94.058,VALID,0,VALID,23.9921,VALID,268,VALID,0.501172,
2012-03-31, 01:37:05,VALID,1000.99,VALID,0,VALID,94.0274,VALID,0,VALID,24.0134,VALID,268,VALID,0,
2012-03-31, 01:38:05,VALID,1000.97,VALID,0,VALID,93.974,VALID,0,VALID,24.0116,VALID,298,VALID,0.696094,
2012-03-31, 01:39:05,VALID,1000.97,VALID,0,VALID,93.9359,VALID,0,VALID,24.0134,VALID,301,VALID,0.430469,
2012-03-31, 01:40:05,VALID,1001,VALID,0,VALID,93.9206,VALID,0,VALID,24.0329,VALID,301,VALID,0.231641,
2012-03-31, 01:41:05,VALID,1001.01,VALID,0,VALID,93.8748,VALID,0,VALID,24.0329,VALID,301,VALID,0.526953,
2012-03-31, 01:42:05,VALID,1001.04,VALID,0,VALID,93.8748,VALID,0,VALID,23.9921,VALID,300,VALID,0.734766,
2012-03-31, 01:43:05,VALID,1001.05,VALID,0,VALID,93.8748,VALID,0,VALID,24.0116,VALID,274,VALID,0.379297,
2012-03-31, 01:44:05,VALID,1001.06,VALID,0,VALID,93.8596,VALID,0,VALID,24.0116,VALID,274,VALID,0.421484,
2012-03-31, 01:45:05,VALID,1001.05,VALID,0,VALID,93.8748,VALID,0,VALID,24.0116,VALID,274,VALID,0.446875,
2012-03-31, 01:46:05,VALID,1001.06,VALID,0,VALID,93.8748,VALID,0,VALID,24.0329,VALID,274,VALID,0.00429688,
2012-03-31, 01:47:05,VALID,1001.04,VALID,0,VALID,93.8596,VALID,0,VALID,24.0525,VALID,274,VALID,0.400781,
2012-03-31, 01:48:05,VALID,1001.01,VALID,0,VALID,93.8291,VALID,0,VALID,24.0116,VALID,274,VALID,0.510156,
2012-03-31, 01:49:05,VALID,1001,VALID,0,VALID,93.8291,VALID,0,VALID,24.0329,VALID,274,VALID,0.393359,
2012-03-31, 01:50:05,VALID,1000.96,VALID,0,VALID,93.8367,VALID,0,VALID,24.0311,VALID,256,VALID,0.572266,
2012-03-31, 01:51:05,VALID,1000.98,VALID,0,VALID,93.8291,VALID,0,VALID,24.0311,VALID,241,VALID,0.576563,
2012-03-31, 01:52:05,VALID,1001,VALID,0,VALID,93.7909,VALID,0,VALID,24.072,VALID,232,VALID,0.217187,
2012-03-31, 01:53:05,VALID,1000.98,VALID,0,VALID,93.707,VALID,0,VALID,24.0525,VALID,198,VALID,0.489062,
2012-03-31, 01:54:05,VALID,1000.96,VALID,0,VALID,93.6612,VALID,0,VALID,24.0329,VALID,198,VALID,0.3875,
2012-03-31, 01:55:05,VALID,1000.98,VALID,0,VALID,93.5468,VALID,0,VALID,23.9921,VALID,198,VALID,0.452344,
2012-03-31, 01:56:05,VALID,1001.01,VALID,0,VALID,93.4094,VALID,0,VALID,23.9939,VALID,198,VALID,0.482812,
2012-03-31, 01:57:05,VALID,1001,VALID,0,VALID,93.3255,VALID,0,VALID,23.9549,VALID,198,VALID,0.459375,
2012-03-31, 01:58:05,VALID,1000.99,VALID,0,VALID,93.3408,VALID,0,VALID,23.9354,VALID,158,VALID,0.668359,
2012-03-31, 01:59:05,VALID,1000.98,VALID,0,VALID,93.356,VALID,0,VALID,23.9354,VALID,158,VALID,0.167187,
2012-03-31, 02:00:05,VALID,1000.98,VALID,0,VALID,93.356,VALID,0,VALID,23.8963,VALID,158,VALID,0.0230469,
2012-03-31, 02:01:05,VALID,1000.99,VALID,0,VALID,93.2874,VALID,0,VALID,23.8768,VALID,158,VALID,0,
2012-03-31, 02:02:05,VALID,1000.98,VALID,0,VALID,93.2721,VALID,0,VALID,23.8573,VALID,158,VALID,0,
2012-03-31, 02:03:05,VALID,1000.98,VALID,0,VALID,93.2492,VALID,0,VALID,23.8378,VALID,158,VALID,0.119141,
2012-03-31, 02:04:05,VALID,1001.02,VALID,0,VALID,93.3484,VALID,0,VALID,23.8183,VALID,158,VALID,0.257813,
2012-03-31, 02:05:05,VALID,1000.98,VALID,0,VALID,93.4476,VALID,0,VALID,23.8183,VALID,158,VALID,0.330469,
2012-03-31, 02:06:05,VALID,1001,VALID,0,VALID,93.5163,VALID,0,VALID,23.8183,VALID,158,VALID,0.179688,
2012-03-31, 02:07:05,VALID,1000.98,VALID,0,VALID,93.5773,VALID,0,VALID,23.7988,VALID,158,VALID,0,
2012-03-31, 02:08:05,VALID,1001.01,VALID,0,VALID,93.5697,VALID,0,VALID,23.7988,VALID,158,VALID,0,
2012-03-31, 02:09:05,VALID,1000.97,VALID,0,VALID,93.6307,VALID,0,VALID,23.7988,VALID,158,VALID,0.00820312,
2012-03-31, 02:10:05,VALID,1000.96,VALID,0,VALID,93.6917,VALID,0,VALID,23.8183,VALID,158,VALID,0,
2012-03-31, 02:11:05,VALID,1000.95,VALID,0,VALID,93.6917,VALID,0,VALID,23.8201,VALID,158,VALID,0.0644531,
2012-03-31, 02:12:05,VALID,1000.97,VALID,0,VALID,93.6994,VALID,0,VALID,23.7988,VALID,158,VALID,0,
2012-03-31, 02:13:05,VALID,1000.96,VALID,0,VALID,93.7451,VALID,0,VALID,23.8183,VALID,158,VALID,0.310937,
2012-03-31, 02:14:05,VALID,1000.97,VALID,0,VALID,93.7833,VALID,0,VALID,23.8183,VALID,158,VALID,0.1125,
2012-03-31, 02:15:05,VALID,1001,VALID,0,VALID,93.7833,VALID,0,VALID,23.8378,VALID,158,VALID,0.0566406,
2012-03-31, 02:16:05,VALID,1001.02,VALID,0,VALID,93.8138,VALID,0,VALID,23.8378,VALID,158,VALID,0,
2012-03-31, 02:17:05,VALID,1000.97,VALID,0,VALID,93.8367,VALID,0,VALID,23.8378,VALID,158,VALID,0,
2012-03-31, 02:18:05,VALID,1000.98,VALID,0,VALID,93.852,VALID,0,VALID,23.8183,VALID,158,VALID,0,
2012-03-31, 02:19:05,VALID,1000.93,VALID,0,VALID,93.8367,VALID,0,VALID,23.8378,VALID,158,VALID,0,
2012-03-31, 02:20:05,VALID,1000.9,VALID,0,VALID,93.8443,VALID,0,VALID,23.8183,VALID,158,VALID,0,
2012-03-31, 02:21:05,VALID,1000.87,VALID,0,VALID,93.8367,VALID,0,VALID,23.7988,VALID,158,VALID,0,
2012-03-31, 02:22:05,VALID,1000.83,VALID,0,VALID,93.7299,VALID,0,VALID,23.7597,VALID,158,VALID,0,
2012-03-31, 02:23:05,VALID,1000.84,VALID,0,VALID,93.8138,VALID,0,VALID,23.7597,VALID,158,VALID,0,
2012-03-31, 02:24:05,VALID,1000.82,VALID,0,VALID,93.852,VALID,0,VALID,23.7402,VALID,158,VALID,0,
2012-03-31, 02:25:05,VALID,1000.82,VALID,0,VALID,93.9206,VALID,0,VALID,23.742,VALID,158,VALID,0,
2012-03-31, 02:26:05,VALID,1000.83,VALID,0,VALID,93.9893,VALID,0,VALID,23.7207,VALID,158,VALID,0,
2012-03-31, 02:27:05,VALID,1000.83,VALID,0,VALID,93.8748,VALID,0,VALID,23.6622,VALID,158,VALID,0,
2012-03-31, 02:28:05,VALID,1000.86,VALID,0,VALID,93.8291,VALID,0,VALID,23.6427,VALID,69,VALID,0,
2012-03-31, 02:29:05,VALID,1000.83,VALID,0,VALID,93.9664,VALID,0,VALID,23.6019,VALID,48,VALID,0,
2012-03-31, 02:30:05,VALID,1000.87,VALID,0,VALID,94.0656,VALID,0,VALID,23.6427,VALID,48,VALID,0,
2012-03-31, 02:31:05,VALID,1000.87,VALID,0,VALID,94.1266,VALID,0,VALID,23.6427,VALID,48,VALID,0,
2012-03-31, 02:32:05,VALID,1000.87,VALID,0,VALID,94.1343,VALID,0,VALID,23.6427,VALID,48,VALID,0,
2012-03-31, 02:33:05,VALID,1000.85,VALID,0,VALID,94.0732,VALID,0,VALID,23.6232,VALID,48,VALID,0,
2012-03-31, 02:34:05,VALID,1000.85,VALID,0,VALID,93.9969,VALID,0,VALID,23.6036,VALID,48,VALID,0,
2012-03-31, 02:35:05,VALID,1000.85,VALID,0,VALID,94.0045,VALID,0,VALID,23.5628,VALID,48,VALID,0.740625,
2012-03-31, 02:36:05,VALID,1000.86,VALID,0,VALID,94.0351,VALID,0,VALID,23.5433,VALID,48,VALID,0.754687,
2012-03-31, 02:37:05,VALID,1000.87,VALID,0,VALID,94.0732,VALID,0,VALID,23.5841,VALID,48,VALID,1.0207,
2012-03-31, 02:38:05,VALID,1000.89,VALID,0,VALID,94.1419,VALID,0,VALID,23.5841,VALID,59,VALID,1.07773,
2012-03-31, 02:39:05,VALID,1000.91,VALID,0,VALID,94.2029,VALID,0,VALID,23.5841,VALID,59,VALID,0.973828,
2012-03-31, 02:40:05,VALID,1000.89,VALID,0,VALID,94.2411,VALID,0,VALID,23.6036,VALID,58,VALID,0.363281,
2012-03-31, 02:41:05,VALID,1000.87,VALID,0,VALID,94.2105,VALID,0,VALID,23.6036,VALID,58,VALID,0.2875,
2012-03-31, 02:42:05,VALID,1000.85,VALID,0,VALID,94.1953,VALID,0,VALID,23.6036,VALID,58,VALID,0.660937,
2012-03-31, 02:43:05,VALID,1000.85,VALID,0,VALID,94.2105,VALID,0,VALID,23.6036,VALID,59,VALID,0.858594,
2012-03-31, 02:44:05,VALID,1000.88,VALID,0,VALID,94.2487,VALID,0,VALID,23.6036,VALID,59,VALID,0.707031,
2012-03-31, 02:45:05,VALID,1000.9,VALID,0,VALID,94.2563,VALID,0,VALID,23.6036,VALID,59,VALID,0.325391,
2012-03-31, 02:46:05,VALID,1000.9,VALID,0,VALID,94.2563,VALID,0,VALID,23.6232,VALID,59,VALID,0.371875,
2012-03-31, 02:47:05,VALID,1000.9,VALID,0,VALID,94.2487,VALID,0,VALID,23.6232,VALID,59,VALID,0.320703,
2012-03-31, 02:48:05,VALID,1000.85,VALID,0,VALID,94.2334,VALID,0,VALID,23.6019,VALID,59,VALID,0.119922,
2012-03-31, 02:49:05,VALID,1000.85,VALID,0,VALID,94.2105,VALID,0,VALID,23.5823,VALID,59,VALID,0,
2012-03-31, 02:50:05,VALID,1000.85,VALID,0,VALID,94.1877,VALID,0,VALID,23.6036,VALID,59,VALID,0,
2012-03-31, 02:51:05,VALID,1000.88,VALID,0,VALID,94.1953,VALID,0,VALID,23.6232,VALID,59,VALID,0,
2012-03-31, 02:52:05,VALID,1000.84,VALID,0,VALID,94.1724,VALID,0,VALID,23.5823,VALID,59,VALID,0,
2012-03-31, 02:53:05,VALID,1000.89,VALID,0,VALID,94.1419,VALID,0,VALID,23.6036,VALID,59,VALID,0,
2012-03-31, 02:54:05,VALID,1000.86,VALID,0,VALID,94.1648,VALID,0,VALID,23.5841,VALID,59,VALID,0,
2012-03-31, 02:55:05,VALID,1000.84,VALID,0,VALID,94.1724,VALID,0,VALID,23.5841,VALID,59,VALID,0,
2012-03-31, 02:56:05,VALID,1000.85,VALID,0,VALID,94.1724,VALID,0,VALID,23.5841,VALID,59,VALID,0,
2012-03-31, 02:57:04,VALID,1000.84,VALID,0,VALID,94.2029,VALID,0,VALID,23.5841,VALID,86,VALID,0.691406,
2012-03-31, 02:58:04,VALID,1000.86,VALID,0,VALID,94.264,VALID,0,VALID,23.6036,VALID,109,VALID,0.904297,
2012-03-31, 02:59:04,VALID,1000.88,VALID,0,VALID,94.386,VALID,0,VALID,23.6427,VALID,106,VALID,0.348437,
2012-03-31, 03:00:04,VALID,1000.93,VALID,0,VALID,94.4013,VALID,0,VALID,23.6622,VALID,106,VALID,0,
2012-03-31, 03:01:04,VALID,1000.95,VALID,0,VALID,94.3708,VALID,0,VALID,23.6817,VALID,106,VALID,0.486719,
2012-03-31, 03:02:04,VALID,1000.96,VALID,0,VALID,94.3097,VALID,0,VALID,23.6817,VALID,106,VALID,0,
2012-03-31, 03:03:04,VALID,1000.97,VALID,0,VALID,94.264,VALID,0,VALID,23.6817,VALID,106,VALID,0.741406,
2012-03-31, 03:04:04,VALID,1000.97,VALID,0,VALID,94.2563,VALID,0,VALID,23.6817,VALID,106,VALID,0.553906,
2012-03-31, 03:05:04,VALID,1000.97,VALID,0,VALID,94.2945,VALID,0,VALID,23.7012,VALID,111,VALID,1.06992,
2012-03-31, 03:06:04,VALID,1000.99,VALID,0,VALID,94.3631,VALID,0,VALID,23.7597,VALID,118,VALID,0.494141,
2012-03-31, 03:07:04,VALID,1001,VALID,0,VALID,94.3708,VALID,0,VALID,23.7597,VALID,118,VALID,0.508984,
2012-03-31, 03:08:04,VALID,1001.01,VALID,0,VALID,94.3174,VALID,0,VALID,23.7793,VALID,118,VALID,0.600391,
2012-03-31, 03:09:04,VALID,1001.03,VALID,0,VALID,94.2105,VALID,0,VALID,23.7793,VALID,116,VALID,1.0043,
2012-03-31, 03:10:04,VALID,1001.06,VALID,0,VALID,94.1648,VALID,0,VALID,23.7793,VALID,113,VALID,0.798047,
2012-03-31, 03:11:04,VALID,1001.04,VALID,0,VALID,94.1037,VALID,0,VALID,23.7597,VALID,113,VALID,0.626172,
2012-03-31, 03:12:04,VALID,1001.03,VALID,0,VALID,94.0732,VALID,0,VALID,23.7793,VALID,113,VALID,0.798828,
2012-03-31, 03:13:04,VALID,1001.06,VALID,0,VALID,94.0732,VALID,0,VALID,23.7597,VALID,113,VALID,0.639063,
2012-03-31, 03:14:04,VALID,1001.04,VALID,0,VALID,94.0427,VALID,0,VALID,23.7597,VALID,104,VALID,0.741797,
2012-03-31, 03:15:04,VALID,1001.05,VALID,0,VALID,94.0045,VALID,0,VALID,23.7597,VALID,104,VALID,0.650781,
2012-03-31, 03:16:04,VALID,1001.07,VALID,0,VALID,94.0045,VALID,0,VALID,23.7384,VALID,109,VALID,0.946484,
2012-03-31, 03:17:04,VALID,1001.07,VALID,0,VALID,93.974,VALID,0,VALID,23.7597,VALID,116,VALID,1.04766,
2012-03-31, 03:18:04,VALID,1001.09,VALID,0,VALID,93.9893,VALID,0,VALID,23.7402,VALID,122,VALID,0.844922,
2012-03-31, 03:19:04,VALID,1001.07,VALID,0,VALID,93.9206,VALID,0,VALID,23.7189,VALID,122,VALID,1.01719,
2012-03-31, 03:20:04,VALID,1001.08,VALID,0,VALID,93.913,VALID,0,VALID,23.7207,VALID,129,VALID,1.29688,
2012-03-31, 03:21:04,VALID,1001.08,VALID,0,VALID,94.0045,VALID,0,VALID,23.7207,VALID,120,VALID,1.11797,
2012-03-31, 03:22:04,VALID,1001.08,VALID,0,VALID,94.058,VALID,0,VALID,23.7402,VALID,114,VALID,1.2043,
2012-03-31, 03:23:04,VALID,1001.09,VALID,0,VALID,94.058,VALID,0,VALID,23.7402,VALID,108,VALID,0.913281,
2012-03-31, 03:24:04,VALID,1001.1,VALID,0,VALID,94.0503,VALID,0,VALID,23.7402,VALID,95,VALID,1.21406,
2012-03-31, 03:25:04,VALID,1001.12,VALID,0,VALID,94.0351,VALID,0,VALID,23.7402,VALID,88,VALID,0.953516,
2012-03-31, 03:26:04,VALID,1001.13,VALID,0,VALID,94.0503,VALID,0,VALID,23.7402,VALID,86,VALID,0.999219,
2012-03-31, 03:27:04,VALID,1001.12,VALID,0,VALID,94.0274,VALID,0,VALID,23.7597,VALID,66,VALID,0.8875,
2012-03-31, 03:28:04,VALID,1001.14,VALID,0,VALID,93.9206,VALID,0,VALID,23.7207,VALID,50,VALID,0.944922,
2012-03-31, 03:29:04,VALID,1001.16,VALID,0,VALID,93.7146,VALID,0,VALID,23.6817,VALID,38,VALID,0.705078,
2012-03-31, 03:30:04,VALID,1001.12,VALID,0,VALID,93.6917,VALID,0,VALID,23.6232,VALID,32,VALID,1.0125,
2012-03-31, 03:31:04,VALID,1001.11,VALID,0,VALID,93.7833,VALID,0,VALID,23.6036,VALID,32,VALID,0.605078,
2012-03-31, 03:32:04,VALID,1001.12,VALID,0,VALID,93.8291,VALID,0,VALID,23.5841,VALID,32,VALID,0.437109,
2012-03-31, 03:33:04,VALID,1001.15,VALID,0,VALID,93.8367,VALID,0,VALID,23.5646,VALID,32,VALID,0.161328,
2012-03-31, 03:34:04,VALID,1001.15,VALID,0,VALID,93.8138,VALID,0,VALID,23.5451,VALID,32,VALID,0.389844,
2012-03-31, 03:35:04,VALID,1001.17,VALID,0,VALID,93.8672,VALID,0,VALID,23.5256,VALID,32,VALID,0.448438,
2012-03-31, 03:36:04,VALID,1001.18,VALID,0,VALID,93.8443,VALID,0,VALID,23.5061,VALID,32,VALID,0.364844,
2012-03-31, 03:37:04,VALID,1001.19,VALID,0,VALID,93.8748,VALID,0,VALID,23.4475,VALID,32,VALID,0.484766,
2012-03-31, 03:38:04,VALID,1001.21,VALID,0,VALID,93.9206,VALID,0,VALID,23.4458,VALID,32,VALID,0.554688,
2012-03-31, 03:39:04,VALID,1001.21,VALID,0,VALID,93.974,VALID,0,VALID,23.4475,VALID,32,VALID,0.496875,
2012-03-31, 03:40:04,VALID,1001.19,VALID,0,VALID,93.9588,VALID,0,VALID,23.428,VALID,32,VALID,0.0121094,
2012-03-31, 03:41:04,VALID,1001.19,VALID,0,VALID,93.9206,VALID,0,VALID,23.389,VALID,32,VALID,0.00742187,
2012-03-31, 03:42:04,VALID,1001.22,VALID,0,VALID,93.9664,VALID,0,VALID,23.389,VALID,32,VALID,0.156641,
2012-03-31, 03:43:04,VALID,1001.25,VALID,0,VALID,94.0808,VALID,0,VALID,23.4085,VALID,32,VALID,0.132422,
2012-03-31, 03:44:04,VALID,1001.22,VALID,0,VALID,94.18,VALID,0,VALID,23.428,VALID,32,VALID,0,
2012-03-31, 03:45:04,VALID,1001.2,VALID,0,VALID,94.2258,VALID,0,VALID,23.4475,VALID,32,VALID,0,
2012-03-31, 03:46:04,VALID,1001.2,VALID,0,VALID,94.1877,VALID,0,VALID,23.428,VALID,32,VALID,0,
2012-03-31, 03:47:04,VALID,1001.17,VALID,0,VALID,94.1877,VALID,0,VALID,23.428,VALID,32,VALID,0.0921875,
2012-03-31, 03:48:04,VALID,1001.18,VALID,0,VALID,94.2029,VALID,0,VALID,23.428,VALID,32,VALID,0.460938,
2012-03-31, 03:49:04,VALID,1001.14,VALID,0,VALID,94.2411,VALID,0,VALID,23.4475,VALID,32,VALID,0.573438,
2012-03-31, 03:50:04,VALID,1001.18,VALID,0,VALID,94.2258,VALID,0,VALID,23.428,VALID,32,VALID,0.492578,